Weather History for KCDR - December, 2012

Change the Weather History Date:

Tuesday, December 11, 2012

  Actual Average Record
Temperature  
Mean Temperature 27 °F 24 °F  
Max Temperature 43 °F 38 °F 70 °F (1939)
Min Temperature 10 °F 11 °F -23 °F (2000)
Degree Days  
Heating Degree Days 38 41  
Month to date heating degree days 347 434  
Since 1 July heating degree days 1826 2118  
Cooling Degree Days 0 0  
Month to date cooling degree days 0 0  
Year to date cooling degree days 1167 712  
Moisture  
Dew Point 15 °F    
Average Humidity 57    
Maximum Humidity 84    
Minimum Humidity 29    
Precipitation  
Precipitation 0.00 in 0.02 in 0.50 in (1965)
Month to date precipitation T 0.19  
Year to date precipitation 7.87 17.72  
Sea Level Pressure  
Sea Level Pressure 29.92 in    
Wind  
Wind Speed 9 mph (SW)    
Max Wind Speed 21 mph    
Max Gust Speed 25 mph    
Visibility 10 miles    
Events      
T = Trace of Precipitation, MM = Missing Value Source: NWS Daily Summary

Daily Weather History Graph

Daily Weather History Graph

Search for Another Location

Airport or City:

Trip Planner

Search our weather history database for the weather conditions in past years. The results will help you decide how hot, cold, wet, or windy it might be!

Date:

Astronomy

Dec. 11, 2012 Rise Set
Actual Time 7:13 AM MST 4:18 PM MST
Civil Twilight 6:41 AM MST 4:50 PM MST
Nautical Twilight 6:05 AM MST 5:26 PM MST
Astronomical Twilight 5:31 AM MST 6:00 PM MST
Moon 5:09 AM MST (12/11) 3:00 PM MST (12/11)
Length of Visible Light 10h 09m
Length of Day
9h 04m
Waning Crescent, 4% of the Moon is Illuminated
Dec 11
Waning Crescent
Dec 13
New
Dec 19
First Quarter
Dec 28
Full
Jan 4
Last Quarter

Hourly Weather History & Observations

Time (MST) Temp. Windchill Dew Point Humidity Pressure Visibility Wind Dir Wind Speed Gust Speed Precip Events Conditions
12:53 AM 19.9 °F 13.4 °F 16.0 °F 85% 30.05 in 10.0 mi SSW 4.6 mph - N/A   Partly Cloudy
1:53 AM 19.9 °F 13.4 °F 15.1 °F 81% 30.04 in 10.0 mi WSW 4.6 mph - N/A   Clear
2:53 AM 18.0 °F 7.7 °F 12.9 °F 81% 30.03 in 10.0 mi WSW 8.1 mph - N/A   Clear
3:53 AM 18.0 °F 12.7 °F 12.9 °F 81% 30.04 in 10.0 mi West 3.5 mph - N/A   Clear
5:53 AM 12.9 °F 5.2 °F 7.0 °F 77% 30.06 in 10.0 mi SW 4.6 mph - N/A   Clear
6:53 AM 17.1 °F 11.7 °F 10.0 °F 74% 30.06 in 10.0 mi SSW 3.5 mph - N/A   Clear
7:53 AM 15.1 °F - 9.0 °F 77% 30.05 in 10.0 mi Calm Calm - N/A   Clear
8:53 AM 24.1 °F 13.7 °F 15.1 °F 69% 30.03 in 10.0 mi WSW 10.4 mph - N/A   Clear
9:53 AM 30.9 °F 20.2 °F 17.1 °F 57% 30.01 in 10.0 mi WSW 15.0 mph - N/A   Clear
10:53 AM 35.1 °F 24.1 °F 16.0 °F 46% 29.96 in 10.0 mi WSW 19.6 mph - N/A   Clear
11:53 AM 37.9 °F 29.6 °F 17.1 °F 43% 29.91 in 10.0 mi WSW 13.8 mph - N/A   Clear
12:53 PM 42.1 °F 35.2 °F 16.0 °F 35% 29.87 in 10.0 mi WSW 12.7 mph - N/A   Clear
1:53 PM 42.1 °F 34.2 °F 12.0 °F 29% 29.84 in 10.0 mi WSW 16.1 mph 23.0 mph N/A   Clear
2:53 PM 42.1 °F 35.2 °F 14.0 °F 32% 29.83 in 10.0 mi SW 12.7 mph - N/A   Clear
3:53 PM 37.9 °F 31.5 °F 14.0 °F 38% 29.83 in 10.0 mi South 9.2 mph - N/A   Clear
4:53 PM 35.1 °F 27.4 °F 15.1 °F 44% 29.83 in 10.0 mi South 10.4 mph - N/A   Clear
5:53 PM 35.1 °F 27.4 °F 16.0 °F 46% 29.82 in 10.0 mi South 10.4 mph - N/A   Clear
6:53 PM 35.1 °F 27.4 °F 17.1 °F 48% 29.79 in 10.0 mi SSW 10.4 mph - N/A   Clear
7:53 PM 28.9 °F 22.8 °F 18.0 °F 64% 29.81 in 10.0 mi WSW 5.8 mph - N/A   Clear
8:53 PM 28.9 °F 22.8 °F 19.9 °F 69% 29.78 in 10.0 mi SW 5.8 mph - N/A   Clear
9:53 PM 32.0 °F 26.4 °F 21.9 °F 66% 29.75 in 10.0 mi SW 5.8 mph - N/A   Clear
11:53 PM 33.1 °F 25.5 °F 21.9 °F 64% 29.74 in 10.0 mi SSW 9.2 mph - N/A   Clear